COSMOS 2429

导读

**COSMOS 2429卫星摘要** COSMOS 2429是由独联体(CIS)发射的一颗军用卫星,于2007年9月11日08:00发射入轨,属于苏联/俄罗斯"宇宙"(COSMOS)系列卫星。该系列命名传统始于1962年,涵盖各类军用卫星任务。作为该系列的现代成员,它承担空间相关任务,延续了俄罗斯在航天领域持续部署天基资产的发展路径。

基本信息
目录编号:
32052
目录名称:
COSMOS 2429
国际标识:
2007-038A
轨道中心:
EARTH
卫星名称:
COSMOS 2429
卫星全名:
--
卫星状态:
在轨 (已飞行6849 天)
发射日期:
2007-09-11 UTC
国别 :
俄罗斯(独联体) (CIS)
星等 :
--
轨道信息
数据来源 国际轨道数据
星历时间: 2026-06-12T14:09:08+0800
13小时前
查看轨道信息
半长轴: 7359.218km
偏心率: 0.0037004
轨道倾角: 82.980°
近地点辐角 248.327°
升交点赤经 209.515°
平近点角 111.395°
近地点: 953.848km
远地点: 1008.314km
周期: 104.715分钟
每日圈数: 13.751666
详细信息
使用方式:
暂无
2D轨道图
3D轨道图
轨道高度分析图
轨道倾角分析图
轨道综合分析图
查看轨道综合分析图